This is the latest recevied weather packets stored in our database for station/object F6JSP-13. If no packets are shown the sender has not sent any weather packets the latest 10 day(s).
| Time | Temp. | Humidity | Pressure | Rain* | Wind** | Luminosity | Snow |
|---|---|---|---|---|---|---|---|
| 1778051405 | 9.44° C | 99% | 1007.4 hPa | 0.51 mm | - | 50 W/m² | - |
| 1778049005 | 9.44° C | 99% | 1007 hPa | 0.51 mm | - | 27 W/m² | - |
| 1778046606 | 10° C | 99% | 1006.8 hPa | 0.76 mm | - | 18 W/m² | - |
| 1778042705 | 10° C | 99% | 1006.6 hPa | 0 mm | - | 0 W/m² | - |
| 1778040305 | 10° C | 99% | 1006.5 hPa | 0 mm | - | 0 W/m² | - |
| 1778039406 | 10° C | 99% | 1006.3 hPa | 0 mm | - | 0 W/m² | - |
| 1778037305 | 10° C | 99% | 1006.4 hPa | 0 mm | - | 0 W/m² | - |
| 1778036705 | 10° C | 99% | 1006.5 hPa | 0 mm | - | 0 W/m² | - |
| 1778035205 | 10° C | 99% | 1006.5 hPa | 0 mm | - | 0 W/m² | - |
| 1778034005 | 10° C | 99% | 1006.5 hPa | 0 mm | - | 0 W/m² | - |
| 1778033104 | 10° C | 99% | 1006.6 hPa | 0 mm | - | 0 W/m² | - |
| 1778032205 | 10° C | 99% | 1006.6 hPa | 0 mm | - | 0 W/m² | - |
| 1778030705 | 10.56° C | 99% | 1006.4 hPa | 0 mm | - | 0 W/m² | - |
| 1778028305 | 10.56° C | 99% | 1006.8 hPa | 0 mm | - | 0 W/m² | - |
| 1778027705 | 10.56° C | 99% | 1006.8 hPa | 0 mm | - | 0 W/m² | - |
| 1778025605 | 10.56° C | 99% | 1007 hPa | 0 mm | - | 0 W/m² | - |
| 1778022005 | 10.56° C | 99% | 1007.2 hPa | 23.11 mm | - | 0 W/m² | - |
| 1778016305 | 11.67° C | 99% | 1007 hPa | 0.25 mm | - | 0 W/m² | - |
| 1778015405 | 11.67° C | 99% | 1007.2 hPa | 1.02 mm | - | 0 W/m² | - |
| 1778014504 | 11.67° C | 99% | 1007.1 hPa | 1.02 mm | - | 0 W/m² | - |
| 1778010304 | 12.22° C | 99% | 1007 hPa | 2.79 mm | - | 0 W/m² | - |
| 1778009405 | 12.22° C | 99% | 1006.7 hPa | 2.79 mm | - | 0 W/m² | - |
| 1778008504 | 12.22° C | 99% | 1006.6 hPa | 3.3 mm | - | 0 W/m² | - |
| 1778004306 | 12.78° C | 99% | 1006.3 hPa | 0.76 mm | - | 4 W/m² | - |
| 1778001006 | 13.33° C | 99% | 1006.1 hPa | 0.51 mm | - | 42 W/m² | - |
* Rain latest hour (hover to see other rain measurements)
** Current wind speed in m/s (hover to see current wind gust speed)